Weather in Urkarakh

Russia / Republic of Dagestan     42°09′35″N   47°38′02″E
temp.,
°C
wind,
m/s
gust,
m/s
humid.,
%
clouds,
%
prec.,
mm/h
press.,
hPa
HPBL,
m
15 may, sat
sat1500:00+16wsw32455 0.0 101523
03:00+16wsw33470 0.0 101522
06:00+18wsw32540 0.0 101536
09:00+24e33370 0.0 1014730
12:00+25e44320 0.0 10141097
15:00+25e33350 0.0 10141097
18:00+20ese22550 0.0 101422
21:00+16w325921 0.0 101520
16 may, sun
sun1600:00+16wsw326240 0.0 101421
03:00+16wsw32569 0.0 101420
06:00+18sw22570 0.0 101337
09:00+23ese34370 0.0 1012714
12:00+26ese55310 0.0 10111296
15:00+26ese56290 0.0 10091380
18:00+21ese12530 0.0 100922
21:00+17wsw22520 0.0 101017
17 may, mon
mon1700:00+17wsw33420 0.0 100929
03:00+16wsw43280 0.0 100929
06:00+18wsw323936 0.0 100931
09:00+24e22299 0.0 1007479
12:00+26e322914 0.0 1007784
15:00+26ene31350 0.0 1006555
18:00+22sse115783 0.0 100619
21:00+20wsw3340100 0.0 100727
18 may, tue
tue1800:00+18wnw433822 0.0 100837
03:00+17wsw224227 0.0 100716
06:00+19nw115048 0.0 100840
09:00+21e325665 0.0 1009659
12:00+21ene4366100 0.2 10101224
15:00+18ene127790 0.9 1011779
18:00+18sse2377100 0.6 1012247
21:00+16wsw118286 0.9 101311
19 may, wed
wed1900:00+14w228968 0.7 101423
03:00+14wsw228137 0.8 101418
06:00+17wsw11700 0.0 101578
09:00+21e22553 0.0 10141102
12:00+23ene325332 0.3 10141506
15:00+22ene326053 0.8 10151077
18:00+19ese22693 0.0 1016269
21:00+16wsw22790 0.0 101618